{"data":{"norad_id":62872,"epoch":"2026-09-20T19:49:36.946848Z","epoch_age_seconds":139972,"freshness":"FRESH","line1":"1 62872U 25022U   26263.82612207  .00012832  00000+0  39022-3 0  9997","line2":"2 62872  53.1611 299.8773 0001139  87.0689 273.0444 15.34403755 91822","mean_motion":15.34403755,"eccentricity":0.0001139,"inclination_deg":53.1611,"raan_deg":299.8773,"arg_perigee_deg":87.0689,"mean_anomaly_deg":273.0444,"bstar":0.00039022,"rev_number":9182,"period_min":93.847528416665,"perigee_km":461.91290914637,"apogee_km":463.4712500107,"semimajor_km":6840.8290795785,"source":"CELESTRAK","updated_at":"2026-09-22T09:00:49.700658Z"}}